| time (UTC) | temp F | wind direction | speed MPH | gust MPH | rain 1hr in | rain 24hr in | rain mn in | humidity % | barometer mb |
| 20260905050001 | 68 | 169 | 0.0 | 0.0 | 0.00 | 0.00 | 0.00 | 83 | 1007.3 |
| 20260905044600 | 69 | 169 | 0.0 | 0.0 | 0.00 | 0.00 | 0.00 | 82 | 1007.4 |
| 20260905043104 | 69 | 169 | 0.0 | 0.0 | 0.00 | 0.00 | 0.00 | 80 | 1007.3 |
| 20260905041559 | 69 | 168 | 0.0 | 0.0 | 0.00 | 0.00 | 0.00 | 79 | 1007.3 |
| 20260905040053 | 69 | 168 | 0.0 | 0.0 | 0.00 | 0.00 | 0.00 | 80 | 1007.3 |
| 20260905034551 | 69 | 168 | 0.0 | 0.0 | 0.00 | 0.00 | 0.00 | 80 | 1007.2 |
| 20260905033049 | 70 | 168 | 0.0 | 0.0 | 0.00 | 0.00 | 0.00 | 78 | 1007.1 |
| 20260905031547 | 70 | 168 | 0.0 | 0.0 | 0.00 | 0.00 | 0.00 | 78 | 1006.9 |
| 20260905030048 | 71 | 168 | 0.0 | 0.0 | 0.00 | 0.00 | 0.00 | 77 | 1007.0 |
| 20260905024549 | 71 | 168 | 0.0 | 0.0 | 0.00 | 0.00 | 0.00 | 76 | 1006.9 |
| 20260905023044 | 71 | 168 | 0.0 | 0.0 | 0.00 | 0.00 | 0.00 | 76 | 1006.8 |
| 20260905021543 | 72 | 168 | 0.0 | 0.0 | 0.00 | 0.00 | 0.00 | 74 | 1006.9 |
| 20260905020041 | 73 | 169 | 0.0 | 0.0 | 0.00 | 0.00 | 0.00 | 73 | 1007.0 |
| 20260905014551 | 73 | 186 | 0.0 | 0.0 | 0.00 | 0.00 | 0.00 | 73 | 1007.2 |
| 20260905013040 | 73 | 186 | 0.0 | 0.0 | 0.00 | 0.00 | 0.00 | 71 | 1007.3 |
| 20260905011538 | 74 | 186 | 0.0 | 0.0 | 0.00 | 0.00 | 0.00 | 71 | 1007.3 |
| 20260905010039 | 74 | 185 | 0.0 | 0.0 | 0.00 | 0.00 | 0.00 | 70 | 1007.3 |
| 20260905004538 | 74 | 211 | 0.0 | 0.0 | 0.00 | 0.00 | 0.00 | 70 | 1007.4 |
| 20260905003037 | 74 | 49 | 0.0 | 0.0 | 0.00 | 0.00 | 0.00 | 70 | 1007.3 |
| 20260905001536 | 75 | 49 | 0.0 | 0.0 | 0.00 | 0.00 | 0.00 | 68 | 1007.0 |
| 20260905000038 | 76 | 16 | 0.0 | 0.0 | 0.00 | 0.00 | 0.00 | 67 | 1006.9 |
| 20260904234536 | 77 | 17 | 0.0 | 2.0 | 0.00 | 0.00 | 0.00 | 66 | 1006.7 |
| 20260904233035 | 77 | 17 | 0.0 | 3.0 | 0.00 | 0.00 | 0.00 | 66 | 1006.8 |
| 20260904231535 | 78 | 18 | 0.0 | 1.0 | 0.00 | 0.00 | 0.00 | 65 | 1006.6 |
| 20260904230034 | 79 | 5 | 0.0 | 2.0 | 0.00 | 0.00 | 0.00 | 64 | 1006.6 |
| 20260904224533 | 79 | 180 | 0.0 | 4.0 | 0.00 | 0.00 | 0.00 | 63 | 1006.5 |
| 20260904223043 | 80 | 5 | 0.0 | 3.0 | 0.00 | 0.00 | 0.00 | 62 | 1006.5 |
| 20260904221544 | 80 | 7 | 0.0 | 4.0 | 0.00 | 0.00 | 0.00 | 60 | 1006.3 |
| 20260904220035 | 81 | 170 | 0.0 | 4.0 | 0.00 | 0.00 | 0.00 | 60 | 1006.3 |
| 20260904214536 | 82 | 6 | 1.0 | 5.0 | 0.00 | 0.00 | 0.00 | 58 | 1006.3 |
| 20260904213031 | 82 | 9 | 1.0 | 4.0 | 0.00 | 0.00 | 0.00 | 58 | 1006.4 |
| 20260904211535 | 83 | 360 | 0.0 | 6.0 | 0.00 | 0.00 | 0.00 | 58 | 1006.3 |
| 20260904210029 | 83 | 164 | 1.0 | 6.0 | 0.00 | 0.00 | 0.00 | 54 | 1006.3 |
| 20260904204529 | 84 | 320 | 3.0 | 11.0 | 0.00 | 0.00 | 0.00 | 51 | 1006.3 |
| 20260904203032 | 85 | 18 | 0.0 | 10.0 | 0.00 | 0.00 | 0.00 | 52 | 1006.3 |
| 20260904201530 | 86 | 355 | 1.0 | 6.0 | 0.00 | 0.00 | 0.00 | 49 | 1006.4 |
| 20260904200024 | 87 | 356 | 3.0 | 7.0 | 0.00 | 0.00 | 0.00 | 47 | 1006.3 |
| 20260904194548 | 86 | 359 | 1.0 | 6.0 | 0.00 | 0.00 | 0.00 | 51 | 1006.2 |
| 20260904193034 | 86 | 330 | 0.0 | 6.0 | 0.00 | 0.00 | 0.00 | 54 | 1006.2 |
| 20260904191516 | 84 | 5 | 3.0 | 8.0 | 0.00 | 0.00 | 0.00 | 55 | 1006.5 |
| 20260904190016 | 85 | 11 | 3.0 | 9.0 | 0.00 | 0.00 | 0.00 | 56 | 1006.5 |
| 20260904184514 | 86 | 351 | 2.0 | 6.0 | 0.00 | 0.00 | 0.00 | 59 | 1006.5 |
| 20260904183014 | 85 | 37 | 2.0 | 6.0 | 0.00 | 0.00 | 0.00 | 57 | 1006.4 |
| 20260904181512 | 84 | 355 | 1.0 | 9.0 | 0.00 | 0.00 | 0.00 | 60 | 1006.4 |
| 20260904180011 | 85 | 7 | 0.0 | 6.0 | 0.00 | 0.00 | 0.00 | 59 | 1006.3 |
| 20260904174510 | 85 | 353 | 1.0 | 7.0 | 0.00 | 0.00 | 0.00 | 58 | 1006.5 |
| 20260904173008 | 85 | 173 | 0.0 | 7.0 | 0.00 | 0.00 | 0.00 | 59 | 1006.6 |
| 20260904171504 | 85 | 182 | 0.0 | 5.0 | 0.00 | 0.00 | 0.00 | 60 | 1006.6 |
| 20260904170001 | 83 | 356 | 1.0 | 7.0 | 0.00 | 0.00 | 0.00 | 61 | 1006.7 |
| 20260904164601 | 84 | 198 | 0.0 | 7.0 | 0.00 | 0.00 | 0.00 | 61 | 1006.8 |
| 20260904163057 | 82 | 188 | 0.0 | 6.0 | 0.00 | 0.00 | 0.00 | 64 | 1006.9 |
| 20260904161555 | 82 | 8 | 2.0 | 5.0 | 0.00 | 0.00 | 0.00 | 62 | 1007.1 |
| 20260904160053 | 81 | 358 | 1.0 | 6.0 | 0.00 | 0.00 | 0.00 | 65 | 1007.3 |
| 20260904154557 | 81 | 350 | 1.0 | 7.0 | 0.00 | 0.00 | 0.00 | 64 | 1007.2 |
| 20260904153151 | 81 | 353 | 2.0 | 8.0 | 0.00 | 0.00 | 0.00 | 67 | 1007.3 |
| 20260904151548 | 81 | 359 | 2.0 | 8.0 | 0.00 | 0.00 | 0.00 | 65 | 1007.3 |
| 20260904150046 | 80 | 5 | 3.0 | 7.0 | 0.00 | 0.00 | 0.00 | 67 | 1007.5 |
| 20260904144546 | 80 | 360 | 3.0 | 8.0 | 0.00 | 0.00 | 0.00 | 65 | 1007.5 |
| 20260904143043 | 80 | 12 | 4.0 | 10.0 | 0.00 | 0.00 | 0.00 | 64 | 1007.6 |
| 20260904141612 | 79 | 356 | 5.0 | 12.0 | 0.00 | 0.00 | 0.00 | 63 | 1007.6 |
| 20260904140045 | 79 | 8 | 1.0 | 5.0 | 0.00 | 0.00 | 0.00 | 69 | 1007.6 |
| 20260904134535 | 78 | 8 | 1.0 | 5.0 | 0.00 | 0.01 | 0.00 | 74 | 1007.6 |
| 20260904133032 | 77 | 358 | 0.0 | 3.0 | 0.00 | 0.01 | 0.00 | 78 | 1007.8 |
| 20260904131529 | 77 | 22 | 0.0 | 0.0 | 0.00 | 0.01 | 0.00 | 82 | 1007.9 |
| 20260904130027 | 76 | 2 | 0.0 | 0.0 | 0.00 | 0.01 | 0.00 | 82 | 1007.9 |
| 20260904124524 | 75 | 198 | 0.0 | 0.0 | 0.00 | 0.01 | 0.00 | 85 | 1008.0 |
| 20260904123020 | 74 | 7 | 0.0 | 0.0 | 0.00 | 0.01 | 0.00 | 90 | 1008.1 |
| 20260904121518 | 73 | 7 | 0.0 | 0.0 | 0.00 | 0.01 | 0.00 | 93 | 1008.2 |
| 20260904120013 | 73 | 7 | 0.0 | 0.0 | 0.00 | 0.01 | 0.00 | 94 | 1008.1 |
| 20260904114511 | 72 | 6 | 0.0 | 0.0 | 0.00 | 0.01 | 0.00 | 95 | 1008.2 |
| 20260904113027 | 72 | 7 | 0.0 | 0.0 | 0.00 | 0.01 | 0.00 | 96 | 1008.2 |
| 20260904111521 | 71 | 7 | 0.0 | 0.0 | 0.00 | 0.01 | 0.00 | 97 | 1008.0 |
| 20260904110010 | 71 | 7 | 0.0 | 0.0 | 0.00 | 0.02 | 0.00 | 96 | 1008.1 |
| 20260904104509 | 71 | 7 | 0.0 | 0.0 | 0.00 | 0.02 | 0.00 | 96 | 1008.2 |
| 20260904103009 | 71 | 7 | 0.0 | 0.0 | 0.00 | 0.02 | 0.00 | 96 | 1008.0 |
| 20260904101508 | 71 | 7 | 0.0 | 0.0 | 0.00 | 0.02 | 0.00 | 96 | 1008.0 |
| 20260904100007 | 71 | 7 | 0.0 | 0.0 | 0.00 | 0.03 | 0.00 | 96 | 1007.9 |
| 20260904094506 | 71 | 7 | 0.0 | 0.0 | 0.00 | 0.03 | 0.00 | 96 | 1007.7 |
| 20260904093005 | 71 | 7 | 0.0 | 0.0 | 0.00 | 0.03 | 0.00 | 96 | 1007.6 |
| 20260904091503 | 71 | 7 | 0.0 | 0.0 | 0.00 | 0.03 | 0.00 | 96 | 1007.6 |
| 20260904090002 | 71 | 7 | 0.0 | 0.0 | 0.00 | 0.18 | 0.00 | 96 | 1007.7 |
| 20260904084501 | 71 | 7 | 0.0 | 0.0 | 0.00 | 0.18 | 0.00 | 96 | 1007.7 |
| 20260904083100 | 71 | 7 | 0.0 | 0.0 | 0.00 | 0.18 | 0.00 | 96 | 1007.7 |
| 20260904081558 | 71 | 7 | 0.0 | 0.0 | 0.00 | 0.18 | 0.00 | 95 | 1007.6 |
| 20260904080057 | 72 | 7 | 0.0 | 0.0 | 0.00 | 0.18 | 0.00 | 95 | 1007.6 |
| 20260904074555 | 72 | 7 | 0.0 | 0.0 | 0.00 | 0.18 | 0.00 | 94 | 1007.6 |
| 20260904073054 | 72 | 7 | 0.0 | 0.0 | 0.00 | 0.18 | 0.00 | 94 | 1007.7 |
| 20260904071548 | 73 | 6 | 0.0 | 0.0 | 0.00 | 0.18 | 0.00 | 93 | 1008.1 |
| 20260904070047 | 73 | 7 | 0.0 | 0.0 | 0.00 | 0.18 | 0.00 | 94 | 1008.2 |
| 20260904064549 | 73 | 7 | 0.0 | 0.0 | 0.00 | 0.18 | 0.00 | 94 | 1008.3 |
| 20260904063043 | 72 | 6 | 0.0 | 0.0 | 0.00 | 0.18 | 0.00 | 94 | 1008.4 |
| 20260904061548 | 72 | 7 | 0.0 | 0.0 | 0.00 | 0.18 | 0.00 | 94 | 1008.5 |
| 20260904060040 | 72 | 7 | 0.0 | 0.0 | 0.00 | 0.18 | 0.00 | 94 | 1008.6 |
| 20260904054538 | 72 | 6 | 0.0 | 2.0 | 0.00 | 0.18 | 0.00 | 94 | 1008.6 |
| 20260904053036 | 72 | 338 | 0.0 | 1.0 | 0.00 | 0.18 | 0.00 | 94 | 1008.7 |
| 20260904051535 | 72 | 10 | 0.0 | 0.0 | 0.00 | 0.18 | 0.00 | 94 | 1009.0 |